Lid_Strength_Index
4 4 5 4 4 4 4 4 4 4 4 4 4 4 4 4 4 4 3 4 3 3 2 3 2 2 2 6 7 2 -1 -0 2 2 4 4 5 5 6 5 5 6 6 6 7 7 6
4 5 5 5 4 4 4 4 4 4 4 4 4 4 5 4 4 4 3 4 4 3 2 3 2 2 4 8 2 1 1 1 2 3 4 3 4 4 5 6 6 7 6 7 7 7 7
4 5 5 5 5 4 4 4 4 4 4 4 4 4 4 4 4 4 4 4 4 3 3 3 2 1 4 6 2 1 2 2 3 3 4 3 3 4 5 7 7 7 8 7 7 7 8
5 5 5 5 5 5 4 4 4 4 4 4 4 4 4 4 4 4 4 4 4 3 3 3 2 2 6 3 1 2 2 2 2 3 3 3 3 5 5 6 7 8 7 8 8 7 8
5 5 5 5 5 4 4 4 4 4 4 4 4 4 4 4 4 4 4 4 4 3 3 2 2 3 7 2 4 2 2 3 3 3 3 4 4 5 6 7 8 8 10 9 8 7 8
4 5 5 5 5 5 4 4 5 5 5 5 5 4 4 4 4 4 4 5 4 4 3 3 4 5 5 7 4 3 1 2 4 4 5 5 5 7 7 8 11 10 9 9 9 8 8
5 5 5 5 5 5 5 5 5 5 5 5 5 5 4 4 4 5 3 4 5 5 5 8 8 8 7 5 3 4 3 3 4 5 7 6 8 9 8 8 8 9 9 10 8 7 9
5 5 5 5 5 5 5 5 5 5 5 5 5 4 4 4 5 5 3 6 7 6 8 7 6 7 5 5 6 5 3 6 6 8 7 7 9 8 7 8 8 8 9 9 7 7 9
5 5 6 5 5 6 6 6 6 6 5 5 5 4 4 5 5 4 5 6 5 5 7 9 7 8 7 5 7 6 4 5 7 8 8 9 8 7 8 8 9 9 9 9 9 7 8
6 6 6 6 6 6 6 6 6 5 5 5 5 4 4 5 5 5 6 4 4 4 9 11 10 8 6 6 8 4 3 5 7 9 8 8 7 8 8 9 8 10 7 8 8 9 11
6 6 6 6 6 6 6 6 6 5 5 5 4 4 4 5 5 6 5 4 3 4 21 11 10 6 6 8 8 6 2 4 7 8 7 9 8 8 9 8 7 8 7 8 8 10 10
7 6 6 6 6 6 6 6 6 5 5 5 4 4 4 4 3 4 3 4 4 12 18 12 10 10 9 8 8 5 4 3 4 7 7 7 5 6 7 6 6 6 7 7 8 9 15
7 6 6 7 7 6 6 6 5 5 5 5 5 5 4 3 6 3 4 6 12 18 11 13 12 10 10 10 10 7 8 8 10 12 11 8 8 6 6 8 6 7 9 15 16 16 17
7 7 7 6 6 6 6 6 5 5 5 5 5 6 4 4 3 4 5 7 17 15 14 11 11 11 12 11 10 9 9 10 8 9 11 13 12 8 6 8 9 9 9 14 21 18 15
7 7 7 7 7 6 6 6 6 5 5 5 6 2 4 4 3 4 6 14 14 13 12 12 12 13 12 11 11 10 10 11 9 8 14 15 13 7 7 7 7 10 11 9 13 13 16
7 7 7 7 7 6 6 6 6 5 5 6 4 4 6 3 3 4 9 14 13 11 11 11 14 12 14 12 12 11 10 9 9 7 7 12 16 8 7 7 7 9 8 14 14 21 22
7 7 7 7 7 6 6 6 6 6 6 7 5 7 5 4 3 7 12 12 11 10 10 11 13 13 13 13 12 12 11 9 8 8 7 9 13 11 8 9 11 10 11 13 14 17 20
7 7 7 7 7 7 6 6 6 5 6 6 6 9 5 4 8 8 11 11 10 11 9 10 10 11 12 12 12 11 12 10 7 8 10 8 12 15 11 8 7 8 11 13 19 18 17
7 7 7 7 7 7 6 6 6 5 7 6 8 8 5 4 11 11 10 11 11 11 11 11 11 11 11 12 13 11 10 8 7 9 9 7 12 16 13 11 9 10 10 10 13 15 18
7 7 7 7 7 7 6 6 6 6 7 6 8 11 9 8 8 10 11 12 13 10 11 10 11 10 11 12 10 12 11 9 8 9 7 7 11 15 17 15 11 13 11 10 12 17 17
7 7 7 7 7 7 6 6 6 6 7 6 8 11 11 12 12 10 10 12 13 13 11 10 11 12 13 14 13 12 11 10 9 8 7 7 12 10 10 10 10 11 11 11 14 13 16
7 7 8 7 7 7 7 6 6 6 7 7 9 10 9 11 11 11 12 13 13 13 12 13 12 12 12 13 12 13 11 10 11 9 9 7 11 10 11 9 10 12 11 10 10 11 12
7 7 8 8 7 7 7 6 6 7 6 7 7 8 8 12 12 11 12 12 13 12 12 11 12 12 12 11 9 9 8 8 8 10 10 10 10 12 14 11 11 15 13 10 9 9 10
6 7 8 8 8 7 7 6 6 6 6 7 7 7 9 13 11 12 12 12 13 12 13 11 11 12 9 8 7 7 7 7 8 8 8 10 11 12 14 13 19 10 8 8 9 8 7
6 7 7 7 7 7 7 7 6 7 6 7 7 7 9 13 12 13 13 12 12 11 12 12 10 9 8 8 10 11 9 10 10 10 10 10 11 13 16 16 12 10 8 9 10 10 8
6 6 7 7 7 7 7 7 6 6 7 6 7 6 8 11 12 12 12 12 12 11 11 11 9 8 7 9 11 14 14 12 12 11 9 11 12 13 15 18 18 10 7 7 7 10 7
5 6 6 7 7 7 7 7 7 7 7 6 7 5 7 10 10 10 11 11 10 10 11 11 11 10 7 10 12 13 13 11 14 14 13 12 14 16 15 16 12 7 6 7 12 11 6
5 5 6 6 7 7 7 7 7 7 7 6 7 6 8 9 10 10 9 10 10 10 12 11 11 10 9 12 12 11 13 11 13 12 13 13 14 15 14 16 18 6 6 10 7 5 5
5 5 5 6 7 7 7 7 7 7 7 7 8 6 6 8 9 7 7 7 8 8 9 9 10 12 9 11 9 10 12 10 12 15 11 14 12 14 14 11 6 5 6 5 4 5 5